Location: Haliburton Scout Reserve
(45.0900°N, 78.3200°W)
Time: 09:12:39
(UTC-05:00)

A-11 Canister half - Visible Passes

Search period start: 27 January 2023 00:00
Search period end: 06 February 2023 00:00
Orbit: 1525 x 1683 km, 47.3° (Epoch: 25 January)

Date Brightness Start Highest point End Pass type
(mag) Time Alt. Az. Time Alt. Az. Time Alt. Az.
27 Jan 10.9 06:16:31 10° S 06:24:02 29° SE 06:31:37 10° ENE visible
28 Jan 10.8 05:55:05 10° S 06:02:25 27° SE 06:09:48 10° ENE visible
29 Jan 10.8 05:33:41 10° S 05:40:48 25° SE 05:47:59 10° E visible
30 Jan 10.8 05:12:17 10° S 05:19:12 24° SE 05:26:09 10° E visible
31 Jan 10.8 04:50:55 10° S 04:57:36 23° SE 05:04:18 10° E visible
31 Jan 9.5 06:52:04 10° SW 07:01:11 64° SSE 07:10:29 10° ENE visible
01 Feb 10.8 04:29:34 10° S 04:36:00 21° SE 04:42:26 10° E visible
01 Feb 9.5 06:30:26 10° SW 06:39:31 62° SSE 06:48:45 10° ENE visible
02 Feb 10.8 04:08:15 10° S 04:14:24 20° SE 04:20:33 10° E visible
02 Feb 9.5 06:08:49 10° SW 06:17:52 60° SSE 06:27:02 10° ENE visible
03 Feb 10.8 03:47:01 10° SSE 03:52:48 19° SE 03:58:38 10° E visible
03 Feb 9.5 05:47:12 10° SW 05:56:12 57° SE 06:05:18 10° ENE visible
04 Feb 10.8 03:27:29 14° SSE 03:31:12 17° SE 03:36:42 10° E visible
04 Feb 9.5 05:25:51 11° SW 05:34:33 55° SE 05:43:35 10° ENE visible
05 Feb 10.8 03:07:44 15° SE 03:09:37 16° SE 03:14:44 10° E visible
05 Feb 9.5 05:06:05 18° SSW 05:12:54 53° SE 05:21:52 10° ENE visible
